Tracking 19903 objects as of 16-Oct-2019
HD Live streaming from Space Station
objects crossing your sky now

COSMOS 1275 DEB

Track COSMOS 1275 DEB now!
10-day predictions


NORAD ID: 17626
Int'l Code: 1981-053KY
Perigee: 931.0 km
Apogee: 1,149.0 km
Inclination: 82.9 °
Period: 105.8 minutes
Semi major axis: 7411 km
RCS: 0.0074 m2 (small)
Launch date: June 4, 1981
Source: Commonwealth of Independent States (former USSR) (CIS)
Launch site: PLESETSK MISSILE AND SPACE COMPLEX (PKMTR)

Note: This is SATELLITE DEBRIS
aabbcc
Your satellite tracking list
Your tracking list is empty




NASA's NSSDC Master Catalog

Two Line Element Set (TLE):
1 17626U 81053KV  19288.33959583  .00000586  00000-0  70277-3 0  9997
2 17626  82.8672 138.7613 0147048  62.0059  58.1144 13.60773344707917
Source of the keplerian elements: AFSPC